[[{"header":{"parameterUnit":"m.s-1","parameterCategory":2,"la1":30.2991,"la2":30.254,"lo1":-89.0895,"lo2":-89.0444,"dy":0.0017,"dx":0.0017,"nx":28,"ny":28,"refTime":"2025-08-30T03:00:00:Z","depth":"0","parameterNumber":2,"parameterNumberName":"U-component_of_CURRENTS"},"data":[0,0,0,0,0,0,0,0,0,0,0,0,0,0,0,0,0,0,0,0,0,0,0,0,0,0,0,0,0,0,0,0,0,0,0,0,0,0,0,0,0,0,0,0,0,0,0,0,0,0,0,0,0,0,0,0,0,0,0.2781,0.2781,0,0.2774,0.2774,0.2774,0.2755,0.2755,0.2754,0.2754,0.2755,0.2755,0.2756,0,0,0,0,0,0,0,0,0,0,0,0,0,0.2814,0.2813,0.2781,0.2781,0.2781,0.2774,0.2774,0.2774,0.2755,0.2755,0.2754,0.2754,0.2755,0.2755,0.2756,0,0,0,0,0,0,0,0,0,0,0,0,0,0.2801,0.2812,0.2781,0.2771,0.277,0.2774,0.2774,0.2774,0.2755,0.2755,0.2754,0.2754,0.2755,0.2755,0.2756,0.2769,0,0,0.2757,0.2758,0,0,0,0,0,0,0,0,0.2802,0.28,0.2773,0.2772,0.2771,0.2766,0.2786,0.2773,0.2755,0.276,0.2754,0.2753,0.276,0.276,0.2759,0.2769,0.2769,0.2757,0.2758,0.2758,0.2758,0,0,0,0,0,0,0,0.2803,0.2801,0.2777,0.2773,0.2772,0.278,0.2777,0.2783,0.2763,0.276,0.2758,0.2759,0.276,0.2758,0.2759,0.2769,0.2757,0.2758,0.2758,0.2758,0.2825,0.2826,0,0,0,0,0,0,0.2804,0.2801,0.2778,0.2777,0.2787,0.2779,0.2776,0.2767,0.2762,0.2761,0.276,0.2758,0.2758,0.2758,0.2759,0.2796,0.2758,0.2758,0.2759,0.2823,0.2825,0.2827,0,0,0,0,0,0,0.2804,0.2801,0.2778,0.279,0.2788,0.2779,0.2769,0.2767,0.2768,0.2762,0.2761,0.2763,0.2757,0.2758,0.2777,0.2795,0.2759,0.2759,0.2822,0.2824,0.2826,0.2857,0,0,0,0,0,0,0.2805,0.2801,0.28,0.279,0.2787,0.2786,0.277,0.2768,0.277,0.2768,0.2765,0.2764,0.2757,0.2777,0.2778,0.2795,0.276,0.282,0.2823,0.2825,0.2855,0.286,0.2866,0,0,0,0,0,0.2806,0.2807,0.28,0.2798,0.2784,0.2786,0.2786,0.2778,0.2771,0.2776,0.2779,0.2764,0.2795,0.2778,0.2779,0.2797,0.2819,0.2822,0.2825,0.2852,0.2859,0.2865,0,0,0,0,0,0,0.282,0.2805,0.2797,0.2792,0.2792,0.2784,0.279,0.2783,0.2789,0.279,0.2781,0.2781,0.2807,0.2802,0.2784,0.2827,0.2806,0.2809,0.2826,0.2833,0.2838,0.2843,0.276,0,0,0,0,0,0.2823,0.2818,0.2808,0.2806,0.2807,0.28,0.2801,0.2796,0.2798,0.2799,0.2795,0.2803,0.2822,0.2826,0.2838,0.2858,0.2868,0.2873,0.2878,0.2883,0.289,0.2932,0.2942,0.2838,0.2838,0.2837,0,0,0.2827,0.282,0.2816,0.281,0.2808,0.2815,0.2799,0.2806,0.2814,0.28,0.2813,0.2823,0.2834,0.286,0.287,0.2855,0.2918,0.2887,0.289,0.2895,0.2936,0.2946,0.2955,0.284,0.2839,0.2839,0,0,0.2838,0.2829,0.2829,0.2833,0.2834,0.2833,0.2837,0.2832,0.2833,0.285,0.2849,0.2874,0.2884,0.2902,0.2912,0.2958,0.2949,0.2958,0.2983,0.3024,0.3033,0.304,0.3063,0.3073,0.2955,0.2955,0.2956,0,0.2847,0.2839,0.2833,0.284,0.2846,0.2843,0.2852,0.2858,0.286,0.2875,0.286,0.2907,0.291,0.2959,0.297,0.297,0.2983,0.2953,0.303,0.3038,0.3046,0.3068,0.3078,0.2957,0.2957,0.2957,0.2957,0,0.2855,0.2856,0.2861,0.2864,0.2874,0.2883,0.289,0.2904,0.2906,0.2915,0.2957,0.2967,0.2998,0.3002,0.2996,0.3053,0.3042,0.3035,0.301,0.3058,0.3078,0.3088,0.296,0.2959,0.2959,0.2958,0,0,0.285,0.2863,0.2863,0.2867,0.2887,0.289,0.2924,0.295,0.2979,0.2987,0.3026,0.3058,0.3065,0.3079,0.308,0.3105,0.3162,0.3087,0.3089,0.3104,0.3242,0.3196,0.3202,0.3165,0.3167,0.3168,0.3233,0,0.2856,0.2866,0.2878,0.2895,0.2898,0.2922,0.2952,0.2983,0.3012,0.305,0.3076,0.3113,0.3094,0.3112,0.3139,0.3164,0.3191,0.3145,0.3199,0.3201,0.3149,0.3214,0.3098,0.3143,0.3243,0.3244,0.3245,0,0.2848,0.2859,0.2872,0.2901,0.2908,0.2925,0.2979,0.301,0.3078,0.3107,0.3158,0.3175,0.3228,0.3195,0.3267,0.3237,0.3244,0.3252,0.3255,0.3208,0.3174,0.3113,0.3157,0.3073,0.3261,0.3259,0.3258,0,0.282,0.2848,0.2856,0.2864,0.2905,0.2925,0.2955,0.3025,0.3067,0.3148,0.3188,0.3252,0.3287,0.3316,0.3333,0.3307,0.34,0.3369,0.3335,0.3331,0.3242,0.3227,0.3205,0.342,0.3419,0.3419,0.3419,0,0.2803,0.2806,0.2841,0.2842,0.2869,0.2907,0.2957,0.3009,0.3095,0.3145,0.3211,0.326,0.3319,0.3369,0.337,0.3392,0.3438,0.3357,0.3355,0.3249,0.3235,0.3164,0.3128,0.3422,0.3421,0.3421,0.342,0,0.2755,0.2778,0.2787,0.2833,0.2849,0.2867,0.2947,0.2984,0.308,0.3149,0.3175,0.3291,0.3357,0.3404,0.3465,0.3442,0.3367,0.3454,0.3318,0.3298,0.3162,0.3132,0.301,0.2921,0.3426,0.3425,0.3425,0,0.2724,0.2724,0.2767,0.2774,0.279,0.283,0.2858,0.2962,0.3008,0.3151,0.3173,0.3283,0.3337,0.3431,0.3428,0.3448,0.334,0.3333,0.326,0.3155,0.3121,0.2995,0.2919,0.3156,0.3153,0.3151,0.3149,0,0.2671,0.2688,0.27,0.272,0.2739,0.277,0.2818,0.2857,0.2969,0.3034,0.3127,0.3193,0.3304,0.3288,0.3331,0.3323,0.3168,0.3286,0.3219,0.2948,0.2768,0.268,0.3107,0.313,0.3132,0.3133,0.3134,0.3135,0.2629,0.2624,0.2642,0.2649,0.267,0.2682,0.2677,0.2741,0.2799,0.2859,0.2998,0.3038,0.3125,0.3179,0.3152,0.3048,0.3035,0.2947,0.2933,0.2825,0.2687,0.3065,0.3058,0.306,0.3061,0.3062,0.3063,0,0.2563,0.2561,0.2567,0.2563,0.2539,0.2589,0.2619,0.2596,0.2602,0.2699,0.276,0.281,0.2823,0.2867,0.2836,0.2714,0.2589,0.2635,0.2436,0.2391,0.2773,0.271,0.2575,0.2575,0.2575,0.2575,0.2575,0.2575,0.2529,0.2499,0.2493,0.2425,0.2417,0.2358,0.235,0.2342,0.2381,0.2374,0.2383,0.2457,0.2603,0.2652,0.2538,0.2469,0.2264,0.2159,0.2155,0.2441,0.2468,0.2494,0.2426,0.2234,0.2233,0.1665,0.166,0.1657]},{"header":{"parameterUnit":"m.s-1","parameterCategory":2,"la1":30.2991,"la2":30.254,"lo1":-89.0895,"lo2":-89.0444,"dy":0.0017,"dx":0.0017,"nx":28,"ny":28,"refTime":"2025-08-30T03:00:00:Z","depth":"0","parameterNumber":3,"parameterNumberName":"V-component_of_CURRENTS"},"data":[0,0,0,0,0,0,0,0,0,0,0,0,0,0,0,0,0,0,0,0,0,0,0,0,0,0,0,0,0,0,0,0,0,0,0,0,0,0,0,0,0,0,0,0,0,0,0,0,0,0,0,0,0,0,0,0,0,0,-0.0045,-0.0045,0,-0.0068,-0.0068,-0.0069,-0.0097,-0.0097,-0.0098,-0.0098,-0.0174,-0.0175,-0.0177,0,0,0,0,0,0,0,0,0,0,0,0,0,-0.0075,-0.0074,-0.0045,-0.0045,-0.0045,-0.0068,-0.0068,-0.0069,-0.0097,-0.0097,-0.0098,-0.0098,-0.0173,-0.0175,-0.0177,0,0,0,0,0,0,0,0,0,0,0,0,0,-0.0078,-0.0074,-0.0045,-0.006,-0.0062,-0.0068,-0.0068,-0.0069,-0.0097,-0.0097,-0.0098,-0.0098,-0.0172,-0.0175,-0.0177,-0.0185,0,0,-0.0185,-0.0187,0,0,0,0,0,0,0,0,-0.0078,-0.0077,-0.0058,-0.0059,-0.0061,-0.0078,-0.0106,-0.011,-0.0097,-0.0086,-0.0098,-0.0098,-0.0145,-0.015,-0.0155,-0.0189,-0.0192,-0.0186,-0.0187,-0.0188,-0.0189,0,0,0,0,0,0,0,-0.0077,-0.0076,-0.0056,-0.0058,-0.006,-0.0083,-0.0084,-0.0107,-0.0115,-0.0087,-0.0088,-0.0088,-0.0147,-0.0153,-0.0157,-0.0193,-0.0186,-0.0188,-0.019,-0.0191,-0.0238,-0.0237,0,0,0,0,0,0,-0.0067,-0.0076,-0.0055,-0.0056,-0.0068,-0.0082,-0.0083,-0.0074,-0.0114,-0.0119,-0.0087,-0.0089,-0.0148,-0.0154,-0.016,-0.0158,-0.0188,-0.0191,-0.0192,-0.0238,-0.0238,-0.0237,0,0,0,0,0,0,-0.0068,-0.0065,-0.0054,-0.0066,-0.0066,-0.008,-0.0071,-0.0074,-0.0077,-0.0113,-0.012,-0.0086,-0.0148,-0.0157,-0.0175,-0.0162,-0.0192,-0.0194,-0.0238,-0.0238,-0.0238,-0.0163,0,0,0,0,0,0,-0.0068,-0.0065,-0.0059,-0.0065,-0.0065,-0.0049,-0.007,-0.0074,-0.0075,-0.0078,-0.0115,-0.0122,-0.0149,-0.0171,-0.0178,-0.0166,-0.0196,-0.0239,-0.0238,-0.0238,-0.0166,-0.016,-0.0155,0,0,0,0,0,-0.0069,-0.0054,-0.0058,-0.0056,-0.0054,-0.0048,-0.005,-0.0064,-0.0075,-0.007,-0.0096,-0.0121,-0.0172,-0.0172,-0.0181,-0.017,-0.0239,-0.0238,-0.0238,-0.0169,-0.0162,-0.0156,0,0,0,0,0,0,-0.0065,-0.0056,-0.006,-0.0043,-0.0043,-0.0052,-0.0049,-0.0058,-0.0074,-0.0081,-0.0116,-0.0125,-0.0138,-0.0165,-0.0165,-0.0183,-0.021,-0.0211,-0.0155,-0.0148,-0.0143,-0.0123,-0.0199,0,0,0,0,0,-0.006,-0.0046,-0.0044,-0.0031,-0.0027,-0.0037,-0.0038,-0.0046,-0.0059,-0.0067,-0.0091,-0.012,-0.0141,-0.0153,-0.0179,-0.0186,-0.0208,-0.0186,-0.0181,-0.0176,-0.0165,-0.0183,-0.0178,-0.0235,-0.0235,-0.0235,0,0,-0.0056,-0.0049,-0.0042,-0.003,-0.0031,-0.0014,-0.0039,-0.0034,-0.0024,-0.0073,-0.0072,-0.0103,-0.014,-0.0149,-0.0157,-0.0169,-0.0171,-0.0175,-0.017,-0.0163,-0.0182,-0.0176,-0.0171,-0.0234,-0.0235,-0.0235,0,0,-0.0032,-0.0031,-0.0008,-0.0002,0.0004,0.0,0.0006,0.0002,-0.0005,-0.001,-0.0041,-0.006,-0.0095,-0.0111,-0.0127,-0.0107,-0.0143,-0.012,-0.0074,-0.0091,-0.0086,-0.0082,-0.01,-0.0098,-0.0116,-0.0115,-0.0115,0,-0.0028,0.0004,-0.0003,0.0023,0.0034,0.0013,0.0042,0.0034,0.0022,0.0025,-0.0002,-0.0039,-0.0074,-0.0074,-0.007,-0.0093,-0.0111,-0.0093,-0.0082,-0.0079,-0.0076,-0.0095,-0.0094,-0.0112,-0.0112,-0.0113,-0.0113,0,0.0019,0.004,0.0055,0.0083,0.0092,0.0111,0.0107,0.0106,0.0092,0.0087,0.0078,0.0031,0.0012,-0.0005,-0.0033,-0.0026,-0.0048,-0.0073,-0.0093,-0.0065,-0.0088,-0.0088,-0.0107,-0.0108,-0.0109,-0.011,0,0,0.0046,0.0082,0.0088,0.0113,0.0127,0.0144,0.0157,0.0174,0.0197,0.0162,0.0184,0.0137,0.0113,0.0093,0.0054,0.0037,0.0035,-0.0004,-0.0007,-0.0012,-0.0001,-0.0011,-0.0012,0.0013,0.0013,0.0013,-0.0024,0,0.0088,0.0148,0.0152,0.0206,0.024,0.0226,0.0247,0.0253,0.025,0.0263,0.0212,0.0212,0.015,0.0142,0.0116,0.006,0.0038,0.0048,-0.0036,-0.0038,-0.0043,-0.0012,0.0018,-0.0012,-0.0024,-0.0025,-0.0025,0,0.014,0.0175,0.0236,0.0281,0.0295,0.0317,0.0355,0.0374,0.0378,0.0374,0.0358,0.0318,0.0288,0.0225,0.0149,0.0158,0.0086,0.0034,0.0031,-0.0002,-0.0048,-0.0044,-0.0012,-0.013,-0.0025,-0.0025,-0.0025,0,0.0179,0.0236,0.0288,0.0303,0.0347,0.0365,0.0388,0.0408,0.0446,0.0448,0.0466,0.0417,0.0401,0.0306,0.019,0.017,0.0104,0.006,-0.0018,-0.002,-0.0022,-0.0025,-0.0104,0.0002,0.0002,0.0003,0.0003,0,0.023,0.0272,0.031,0.034,0.0408,0.0416,0.0489,0.05,0.0537,0.0599,0.0529,0.0561,0.0421,0.0358,0.0233,0.012,0.0133,0.0003,-0.0024,0.0003,0.0004,-0.0123,-0.02,0.0001,0.0001,0.0002,0.0002,0,0.0269,0.0291,0.0358,0.0409,0.043,0.0481,0.0561,0.0618,0.0634,0.0707,0.0707,0.0681,0.0607,0.0455,0.0317,0.0193,0.0003,0.0018,0.0061,0.004,-0.0147,-0.022,-0.0336,-0.0393,-0.0069,-0.0069,-0.0069,0,0.0296,0.0334,0.0411,0.0459,0.0485,0.0561,0.062,0.0665,0.0737,0.079,0.0835,0.0785,0.0783,0.0578,0.0353,0.0141,0.0005,0.0013,-0.0025,-0.014,-0.0242,-0.03,-0.0344,-0.0003,-0.0003,-0.0003,-0.0003,0,0.035,0.0372,0.0427,0.0525,0.0594,0.0687,0.0773,0.0845,0.0903,0.0973,0.1058,0.1059,0.0865,0.0691,0.0388,0.0231,-0.0063,0.001,-0.0117,-0.0198,-0.0257,-0.0329,-0.0003,-0.0001,-0.0001,-0.0001,-0.0001,-0.0001,0.0386,0.0435,0.0503,0.06,0.0686,0.0798,0.0883,0.0991,0.112,0.1236,0.1233,0.1279,0.0991,0.0604,0.0368,-0.0036,-0.0062,-0.016,-0.0239,-0.0286,-0.0341,-0.0009,-0.0034,-0.0035,-0.0035,-0.0035,-0.0036,0,0.0432,0.0488,0.0576,0.0689,0.0791,0.0828,0.0978,0.1078,0.1243,0.1369,0.1457,0.1368,0.101,0.0619,0.0066,-0.0225,-0.0337,-0.0388,-0.0463,-0.0497,-0.0201,-0.0197,-0.0248,-0.0248,-0.0247,-0.0247,-0.0247,-0.0247,0.0457,0.0541,0.0588,0.0754,0.0839,0.0978,0.1068,0.1227,0.1356,0.1541,0.1606,0.1622,0.1319,0.0334,-0.0314,-0.0457,-0.0674,-0.072,-0.084,-0.064,-0.0624,-0.061,-0.0623,-0.0762,-0.0763,-0.1083,-0.1086,-0.1089]}],[{"header":{"parameterUnit":"m.s-1","parameterCategory":2,"la1":30.2991,"la2":30.254,"lo1":-89.0895,"lo2":-89.0444,"dy":0.0017,"dx":0.0017,"nx":28,"ny":28,"refTime":"2025-08-30T03:00:00:Z","depth":"2","parameterNumber":2,"parameterNumberName":"U-component_of_CURRENTS"},"data":[0,0,0,0,0,0,0,0,0,0,0,0,0,0,0,0,0,0,0,0,0,0,0,0,0,0,0,0,0,0,0,0,0,0,0,0,0,0,0,0,0,0,0,0,0,0,0,0,0,0,0,0,0,0,0,0,0,0,0.2208,0.2208,0,0.222,0.222,0.222,0.2212,0.2212,0.2212,0.2211,0.2222,0.2223,0.2223,0,0,0,0,0,0,0,0,0,0,0,0,0,0.2186,0.2187,0.2208,0.2208,0.2209,0.222,0.222,0.222,0.2212,0.2212,0.2212,0.2211,0.2222,0.2223,0.2223,0,0,0,0,0,0,0,0,0,0,0,0,0,0.2195,0.2187,0.2208,0.2207,0.2208,0.222,0.222,0.222,0.2212,0.2212,0.2211,0.2211,0.2222,0.2223,0.2223,0.2234,0,0,0.2226,0.2226,0,0,0,0,0,0,0,0,0.2194,0.2195,0.2207,0.2207,0.2208,0.2216,0.2217,0.2225,0.2212,0.2208,0.2211,0.2211,0.2222,0.2222,0.2223,0.2234,0.2235,0.2226,0.2226,0.2226,0.2227,0,0,0,0,0,0,0,0.2194,0.2195,0.2211,0.2207,0.2208,0.221,0.221,0.2218,0.2215,0.2209,0.2208,0.2213,0.2222,0.2222,0.2223,0.2235,0.2226,0.2226,0.2227,0.2227,0.2295,0.2296,0,0,0,0,0,0,0.2196,0.2194,0.221,0.2211,0.2203,0.2211,0.2211,0.2212,0.2215,0.2216,0.2213,0.2213,0.2221,0.2222,0.2223,0.227,0.2226,0.2227,0.2227,0.2293,0.2295,0.2296,0,0,0,0,0,0,0.2196,0.2197,0.221,0.2205,0.2207,0.2211,0.2212,0.2212,0.2225,0.2219,0.2219,0.2227,0.2221,0.2222,0.2246,0.2269,0.2227,0.2228,0.2292,0.2294,0.2296,0.2341,0,0,0,0,0,0,0.2195,0.2197,0.2203,0.2205,0.2207,0.2225,0.2213,0.2213,0.2228,0.2228,0.2231,0.2231,0.222,0.2245,0.2247,0.2269,0.2229,0.229,0.2293,0.2295,0.2338,0.2344,0.235,0,0,0,0,0,0.2194,0.2201,0.2204,0.2206,0.2214,0.2226,0.2228,0.2228,0.2229,0.2238,0.2245,0.2231,0.2262,0.2247,0.2248,0.2271,0.2289,0.2292,0.2295,0.2335,0.2343,0.235,0,0,0,0,0,0,0.2194,0.2201,0.2204,0.2212,0.2224,0.2226,0.2236,0.224,0.2252,0.2255,0.2248,0.2249,0.2278,0.2273,0.2255,0.23,0.2274,0.2277,0.2304,0.2311,0.2317,0.2317,0.2229,0,0,0,0,0,0.2198,0.2206,0.2214,0.2224,0.2231,0.2238,0.2246,0.2249,0.2258,0.2263,0.2268,0.2277,0.229,0.2299,0.2306,0.2332,0.2336,0.2349,0.2355,0.236,0.2363,0.2397,0.2407,0.2307,0.2307,0.2307,0,0,0.22,0.2207,0.2211,0.2225,0.2233,0.2248,0.2242,0.2259,0.2274,0.2264,0.2289,0.2298,0.2303,0.2329,0.2342,0.2329,0.2392,0.2364,0.2369,0.2368,0.2402,0.2411,0.242,0.2309,0.2308,0.2308,0,0,0.2208,0.2217,0.2226,0.2239,0.2258,0.2265,0.2275,0.2289,0.2298,0.2323,0.2324,0.2349,0.2365,0.2376,0.2382,0.2429,0.2422,0.2435,0.2466,0.2501,0.2509,0.2516,0.2535,0.2544,0.2439,0.2439,0.2439,0,0.2212,0.2223,0.2232,0.2247,0.2261,0.2276,0.2292,0.2306,0.2327,0.2345,0.2337,0.2385,0.2386,0.2428,0.2442,0.2442,0.2457,0.2436,0.2508,0.2516,0.2522,0.254,0.2549,0.2441,0.2441,0.2441,0.2441,0,0.2224,0.2239,0.2248,0.2271,0.2288,0.2307,0.2328,0.2351,0.2367,0.2384,0.243,0.2438,0.2469,0.2476,0.247,0.2526,0.252,0.2511,0.2487,0.2535,0.255,0.2559,0.2445,0.2444,0.2443,0.2443,0,0,0.2213,0.2249,0.2253,0.2265,0.2303,0.2313,0.2353,0.239,0.2424,0.2447,0.249,0.2517,0.2534,0.2543,0.255,0.2576,0.2633,0.2567,0.2568,0.2582,0.2707,0.2655,0.2659,0.2642,0.2644,0.2646,0.2699,0,0.222,0.2244,0.2267,0.2296,0.2309,0.2344,0.2379,0.2418,0.2455,0.2502,0.2528,0.257,0.2557,0.2582,0.2609,0.2631,0.2658,0.2619,0.2662,0.2663,0.2608,0.2668,0.2458,0.2484,0.2707,0.2708,0.2709,0,0.2217,0.2236,0.2262,0.2305,0.2316,0.2343,0.2405,0.2442,0.2517,0.2551,0.2606,0.2629,0.2683,0.2657,0.2722,0.2702,0.271,0.2716,0.2718,0.2659,0.2627,0.2473,0.249,0.2723,0.2722,0.2721,0.272,0,0.2184,0.2228,0.2247,0.2261,0.2317,0.2344,0.2384,0.2458,0.2502,0.2592,0.2634,0.2699,0.2737,0.2766,0.2782,0.2764,0.2841,0.2815,0.2774,0.2769,0.2591,0.2569,0.2857,0.2857,0.2857,0.2857,0.2857,0,0.2169,0.2183,0.2234,0.2242,0.228,0.2329,0.2387,0.2443,0.2533,0.2584,0.2659,0.2706,0.2769,0.2813,0.2815,0.2827,0.2873,0.2791,0.2787,0.2601,0.258,0.2783,0.2774,0.2859,0.2858,0.2858,0.2858,0,0.2121,0.2156,0.2178,0.2239,0.2262,0.2289,0.238,0.2419,0.2519,0.2591,0.2623,0.2734,0.2797,0.2841,0.2895,0.2866,0.2881,0.2868,0.2641,0.261,0.2775,0.2768,0.2831,0.283,0.2829,0.2828,0.2827,0,0.2095,0.2103,0.2162,0.2176,0.2205,0.2258,0.2294,0.2401,0.2446,0.259,0.2611,0.272,0.2768,0.2843,0.2824,0.2832,0.2874,0.2629,0.2551,0.2787,0.2777,0.2771,0.2765,0.2332,0.2327,0.2323,0.232,0,0.2048,0.2073,0.2091,0.2124,0.2157,0.2192,0.2252,0.2282,0.2401,0.2465,0.2547,0.2607,0.27,0.2624,0.2656,0.2626,0.2612,0.2551,0.2866,0.2375,0.2321,0.231,0.232,0.2286,0.2289,0.2292,0.2294,0.2295,0.201,0.2009,0.2037,0.2057,0.2089,0.21,0.2094,0.2158,0.2208,0.227,0.2397,0.2413,0.2461,0.2404,0.2334,0.228,0.2458,0.2334,0.2343,0.2357,0.2294,0.2242,0.2179,0.2182,0.2184,0.2186,0.2188,0,0.1949,0.1953,0.1966,0.1974,0.1959,0.2018,0.2038,0.2005,0.2004,0.2099,0.2154,0.2007,0.1982,0.2022,0.1893,0.1901,0.186,0.1815,0.1734,0.1772,0.1805,0.171,0.1441,0.1438,0.1436,0.1434,0,0,0.1917,0.1892,0.1889,0.1835,0.1842,0.1787,0.1772,0.1746,0.177,0.175,0.1749,0.191,0.1981,0.1681,0.1652,0.152,0.1628,0.1462,0.207,0.2015,0.2044,0.2124,0.2024,0,0,0,0,0]},{"header":{"parameterUnit":"m.s-1","parameterCategory":2,"la1":30.2991,"la2":30.254,"lo1":-89.0895,"lo2":-89.0444,"dy":0.0017,"dx":0.0017,"nx":28,"ny":28,"refTime":"2025-08-30T03:00:00:Z","depth":"2","parameterNumber":3,"parameterNumberName":"V-component_of_CURRENTS"},"data":[0,0,0,0,0,0,0,0,0,0,0,0,0,0,0,0,0,0,0,0,0,0,0,0,0,0,0,0,0,0,0,0,0,0,0,0,0,0,0,0,0,0,0,0,0,0,0,0,0,0,0,0,0,0,0,0,0,0,0.0218,0.0218,0,0.0187,0.0187,0.0186,0.0163,0.0163,0.0163,0.0162,0.0104,0.0103,0.0101,0,0,0,0,0,0,0,0,0,0,0,0,0,0.0213,0.0214,0.0218,0.0218,0.0217,0.0187,0.0187,0.0186,0.0163,0.0163,0.0163,0.0162,0.0104,0.0103,0.0101,0,0,0,0,0,0,0,0,0,0,0,0,0,0.0202,0.0214,0.0218,0.0203,0.0201,0.0187,0.0187,0.0186,0.0163,0.0163,0.0162,0.0162,0.0105,0.0103,0.0101,0.0092,0,0,0.0094,0.0093,0,0,0,0,0,0,0,0,0.0202,0.0202,0.0205,0.0204,0.0202,0.0179,0.0164,0.0154,0.0163,0.0177,0.0162,0.0162,0.0127,0.0123,0.0117,0.0089,0.0087,0.0094,0.0093,0.0092,0.0091,0,0,0,0,0,0,0,0.0203,0.0203,0.0205,0.0205,0.0203,0.0182,0.0181,0.0161,0.0152,0.0175,0.0174,0.0172,0.0126,0.0119,0.0116,0.0086,0.0094,0.0092,0.0091,0.009,0.0054,0.0054,0,0,0,0,0,0,0.0211,0.0204,0.0206,0.0204,0.0202,0.0183,0.0181,0.0186,0.0153,0.0148,0.0172,0.0171,0.0123,0.0118,0.0114,0.0114,0.0092,0.009,0.0089,0.0054,0.0054,0.0054,0,0,0,0,0,0,0.0211,0.0212,0.0207,0.0203,0.0201,0.0184,0.0189,0.0186,0.018,0.0151,0.0145,0.017,0.0123,0.0117,0.0104,0.0111,0.0089,0.0087,0.0053,0.0054,0.0054,0.0108,0,0,0,0,0,0,0.0211,0.0212,0.0217,0.0204,0.0202,0.0206,0.0189,0.0185,0.0179,0.0177,0.0148,0.0142,0.0122,0.0107,0.0102,0.0108,0.0085,0.0053,0.0054,0.0054,0.0105,0.011,0.0114,0,0,0,0,0,0.0212,0.0223,0.0217,0.0217,0.021,0.0207,0.0204,0.0189,0.018,0.0182,0.0163,0.0143,0.0107,0.0106,0.01,0.0105,0.0053,0.0053,0.0054,0.0104,0.0109,0.0114,0,0,0,0,0,0,0.0221,0.0222,0.0215,0.0225,0.0219,0.0203,0.0203,0.0192,0.0179,0.0176,0.0147,0.0141,0.0132,0.0111,0.0111,0.0096,0.0076,0.0075,0.0116,0.0121,0.0125,0.014,0.0084,0,0,0,0,0,0.0226,0.0236,0.0229,0.0235,0.0235,0.0219,0.0214,0.0205,0.0193,0.0186,0.0166,0.0144,0.0129,0.012,0.0101,0.0094,0.007,0.0093,0.0097,0.01,0.0108,0.008,0.0082,0.0057,0.0057,0.0057,0,0,0.0231,0.0232,0.0237,0.0238,0.023,0.024,0.0216,0.0214,0.022,0.0182,0.0181,0.0157,0.013,0.0124,0.0118,0.0108,0.0094,0.0101,0.0105,0.011,0.0081,0.0083,0.0085,0.0057,0.0057,0.0057,0,0,0.025,0.0248,0.0264,0.0264,0.0259,0.0252,0.0255,0.0242,0.0235,0.023,0.0206,0.019,0.0164,0.015,0.0139,0.0154,0.0116,0.0144,0.0177,0.015,0.0152,0.0153,0.0125,0.0124,0.0147,0.0147,0.0147,0,0.0256,0.0277,0.0266,0.0282,0.0288,0.0263,0.0282,0.0272,0.0257,0.0256,0.0237,0.0204,0.0179,0.0176,0.0181,0.0164,0.014,0.0163,0.0156,0.0157,0.0157,0.0128,0.0126,0.0149,0.0149,0.0149,0.0149,0,0.029,0.0305,0.0314,0.033,0.0333,0.0344,0.0335,0.033,0.0315,0.0307,0.0295,0.0258,0.0241,0.0227,0.0208,0.0203,0.0183,0.0164,0.0146,0.0163,0.0131,0.0128,0.0153,0.0152,0.0152,0.0151,0,0,0.0311,0.0335,0.0338,0.0358,0.0362,0.0372,0.0378,0.0385,0.0399,0.0365,0.0375,0.034,0.0316,0.0302,0.027,0.0244,0.0224,0.021,0.0208,0.0187,0.0161,0.0145,0.014,0.0202,0.0202,0.0202,0.0137,0,0.0343,0.0387,0.0388,0.0429,0.0455,0.0439,0.0453,0.0452,0.0443,0.0443,0.0396,0.0393,0.0346,0.0339,0.0305,0.0248,0.0218,0.0243,0.0143,0.0141,0.0128,0.0136,0.0158,0.0102,0.0133,0.0133,0.0132,0,0.0379,0.0408,0.0456,0.0492,0.0502,0.0518,0.0542,0.0554,0.0544,0.0536,0.0513,0.0476,0.0438,0.0391,0.0298,0.0316,0.0246,0.0192,0.0188,0.0155,0.0119,0.0089,0.0095,0.0126,0.0126,0.0127,0.0127,0,0.0411,0.0455,0.0498,0.0511,0.0544,0.0559,0.0575,0.0582,0.061,0.0597,0.0607,0.0547,0.0525,0.0428,0.0315,0.0306,0.0206,0.0178,0.0095,0.0093,0.0083,0.0081,0.0108,0.0108,0.0109,0.0109,0.0109,0,0.0452,0.0485,0.0517,0.0543,0.06,0.0604,0.0662,0.0664,0.0685,0.0727,0.066,0.0671,0.0533,0.0456,0.0339,0.0212,0.0221,0.0105,0.0077,0.0102,0.0102,0.01,0.01,0.0106,0.0107,0.0107,0.0108,0,0.0483,0.05,0.0557,0.06,0.0618,0.066,0.0726,0.0771,0.0775,0.0823,0.0821,0.0767,0.0669,0.052,0.0368,0.0256,0.0127,0.0076,0.0114,0.0092,0.0024,0.0027,-0.0022,-0.0023,-0.0024,-0.0025,-0.0025,0,0.0504,0.0536,0.0602,0.0643,0.0665,0.073,0.0781,0.0815,0.087,0.0887,0.0915,0.0835,0.0796,0.0565,0.0355,0.0148,0.0121,0.0029,0.0014,0.0034,0.0012,0.0016,0.0021,0.0018,0.0018,0.0017,0.0017,0,0.0548,0.0568,0.0615,0.0701,0.0761,0.0842,0.0914,0.097,0.101,0.1045,0.1073,0.1039,0.0821,0.062,0.0333,0.0198,0.0062,0.0018,0.003,0.0051,0.0067,0.0047,0.005,0.0016,0.0016,0.0016,0.0016,0.0016,0.0579,0.0621,0.0681,0.0764,0.0839,0.0936,0.1011,0.1087,0.1176,0.1226,0.1192,0.1142,0.0905,0.0547,0.03,0.0043,0.0057,-0.0035,-0.0033,-0.003,-0.001,0.0003,-0.0056,-0.0056,-0.0057,-0.0057,-0.0057,0,0.0618,0.0666,0.0743,0.0841,0.0928,0.0964,0.1089,0.1162,0.1266,0.1301,0.1319,0.1093,0.086,0.0584,0.0201,-0.0025,-0.0034,-0.0093,-0.0059,-0.0055,-0.0052,-0.0032,-0.0085,-0.0086,-0.0087,-0.0088,0,0,0.0639,0.0712,0.0753,0.0894,0.0968,0.1092,0.1168,0.1269,0.1326,0.1364,0.1334,0.1276,0.0937,0.0655,0.0346,0.0124,0.009,0.0088,0.0137,0.0218,0.0223,0.0008,0.0047,0,0,0,0,0]}],[{"header":{"parameterUnit":"m.s-1","parameterCategory":2,"la1":30.2991,"la2":30.254,"lo1":-89.0895,"lo2":-89.0444,"dy":0.0017,"dx":0.0017,"nx":28,"ny":28,"refTime":"2025-08-30T03:00:00:Z","depth":"4","parameterNumber":2,"parameterNumberName":"U-component_of_CURRENTS"},"data":[0,0,0,0,0,0,0,0,0,0,0,0,0,0,0,0,0,0,0,0,0,0,0,0,0,0,0,0,0,0,0,0,0,0,0,0,0,0,0,0,0,0,0,0,0,0,0,0,0,0,0,0,0,0,0,0,0,0,0.1349,0.135,0,0.1395,0.1395,0.1395,0.1434,0.1434,0.1435,0.1435,0.1477,0.1477,0.1478,0,0,0,0,0,0,0,0,0,0,0,0,0,0.1275,0.1276,0.1349,0.135,0.1351,0.1395,0.1395,0.1396,0.1433,0.1434,0.1435,0.1436,0.1477,0.1477,0.1478,0,0,0,0,0,0,0,0,0,0,0,0,0,0.131,0.1277,0.1349,0.1377,0.138,0.1395,0.1395,0.1396,0.1433,0.1434,0.1435,0.1436,0.1477,0.1477,0.1478,0.1463,0,0,0.148,0.1481,0,0,0,0,0,0,0,0,0.1308,0.1313,0.1372,0.1375,0.1379,0.1412,0.1385,0.1419,0.1433,0.141,0.1435,0.1437,0.1456,0.1458,0.1461,0.1465,0.1467,0.148,0.1481,0.1481,0.1481,0,0,0,0,0,0,0,0.1306,0.1311,0.1365,0.1373,0.1377,0.1381,0.1387,0.1391,0.1425,0.1412,0.1416,0.1425,0.1457,0.146,0.1462,0.1468,0.148,0.1481,0.1482,0.1482,0.1556,0.1557,0,0,0,0,0,0,0.1306,0.1309,0.1363,0.1366,0.1348,0.1382,0.1388,0.1398,0.1425,0.1431,0.1424,0.1426,0.1458,0.1461,0.1464,0.153,0.1481,0.1482,0.1482,0.1555,0.1556,0.1558,0,0,0,0,0,0,0.1304,0.131,0.1361,0.134,0.1348,0.1382,0.1393,0.1398,0.1433,0.1434,0.144,0.1457,0.1459,0.1463,0.1497,0.1529,0.1482,0.1483,0.1553,0.1555,0.1557,0.161,0,0,0,0,0,0,0.1302,0.1309,0.1329,0.1341,0.1349,0.1391,0.1392,0.1399,0.1437,0.1441,0.1464,0.1467,0.146,0.1496,0.1498,0.1529,0.1484,0.1551,0.1554,0.1556,0.1606,0.1614,0.162,0,0,0,0,0,0.1299,0.1315,0.1329,0.1337,0.1371,0.1392,0.1397,0.1422,0.1438,0.1456,0.1476,0.1468,0.1516,0.1498,0.15,0.1532,0.1549,0.1553,0.1556,0.1603,0.1612,0.162,0,0,0,0,0,0,0.1293,0.1321,0.1337,0.1363,0.1388,0.14,0.1424,0.1439,0.1469,0.1483,0.1482,0.1487,0.153,0.1524,0.1504,0.1563,0.1533,0.1537,0.1569,0.1577,0.1584,0.1591,0.1484,0,0,0,0,0,0.1301,0.1325,0.1348,0.1373,0.1389,0.1413,0.1431,0.145,0.1471,0.1487,0.1503,0.1522,0.1539,0.1554,0.1566,0.1594,0.1595,0.1618,0.1625,0.1631,0.1639,0.1668,0.1678,0.1569,0.1569,0.1569,0,0,0.1306,0.1326,0.1341,0.1375,0.1398,0.1422,0.1427,0.1464,0.1491,0.1485,0.1536,0.1549,0.1553,0.1588,0.1607,0.1591,0.1664,0.1635,0.164,0.1645,0.1672,0.1683,0.1692,0.1572,0.1571,0.1571,0,0,0.1318,0.1349,0.137,0.1394,0.1436,0.1451,0.1469,0.1503,0.1529,0.1571,0.1577,0.1613,0.1638,0.1649,0.1655,0.1708,0.1701,0.1718,0.1757,0.1785,0.1794,0.1802,0.182,0.1829,0.172,0.172,0.172,0,0.1327,0.1355,0.1381,0.1407,0.1432,0.1467,0.1495,0.1522,0.1566,0.1591,0.1599,0.1659,0.1666,0.1704,0.1727,0.1724,0.1736,0.1722,0.1794,0.1802,0.1809,0.1825,0.1834,0.1723,0.1722,0.1722,0.1722,0,0.1344,0.1379,0.1396,0.1442,0.1471,0.1504,0.1542,0.1583,0.1622,0.1649,0.1712,0.1727,0.1763,0.1773,0.1767,0.1825,0.1816,0.1799,0.177,0.1823,0.1837,0.1845,0.1727,0.1726,0.1725,0.1724,0,0,0.1329,0.1395,0.1406,0.1432,0.1495,0.1515,0.1572,0.1625,0.1671,0.1721,0.1776,0.1815,0.184,0.1849,0.1853,0.1879,0.194,0.1868,0.1868,0.1882,0.2005,0.1877,0.1873,0.194,0.1942,0.1943,0.1995,0,0.1339,0.1386,0.1422,0.1476,0.1502,0.1555,0.1603,0.166,0.1715,0.1777,0.1815,0.1871,0.1863,0.1895,0.1922,0.194,0.1966,0.1928,0.1956,0.1956,0.1832,0.188,0.1949,0.2001,0.2003,0.2005,0.2006,0,0.1339,0.1373,0.1424,0.1493,0.1512,0.1555,0.1641,0.169,0.1781,0.1829,0.1895,0.1929,0.1992,0.1972,0.2034,0.2014,0.2021,0.2025,0.2026,0.1893,0.1843,0.1938,0.2021,0.202,0.2019,0.2018,0.2017,0,0.1299,0.1372,0.1414,0.1438,0.1522,0.1566,0.1621,0.1712,0.1765,0.1875,0.1926,0.1998,0.2048,0.2074,0.2094,0.2078,0.2147,0.2119,0.2007,0.1998,0.2074,0.2065,0.2159,0.2159,0.2159,0.2159,0.2159,0,0.1278,0.1315,0.1405,0.1425,0.1487,0.1556,0.1635,0.1703,0.1807,0.1866,0.1957,0.2004,0.2079,0.2122,0.2125,0.2092,0.2175,0.2023,0.2005,0.2095,0.2088,0.208,0.207,0.2161,0.216,0.216,0.216,0,0.1224,0.1284,0.1335,0.1433,0.147,0.1516,0.1638,0.1686,0.1801,0.1882,0.1923,0.2035,0.2088,0.2136,0.2183,0.2117,0.2107,0.2073,0.2178,0.2164,0.1933,0.1925,0.1951,0.1947,0.1944,0.1941,0.1939,0,0.1196,0.1219,0.1329,0.1362,0.1414,0.1497,0.1549,0.1673,0.1721,0.1875,0.1895,0.2003,0.2056,0.2023,0.2083,0.2081,0.2051,0.2031,0.1969,0.1932,0.1913,0.1911,0.1909,0.1933,0.1932,0.1931,0.193,0,0.1143,0.1197,0.1238,0.1309,0.1371,0.1427,0.151,0.1535,0.1667,0.1786,0.1825,0.1857,0.1911,0.194,0.1956,0.1947,0.2035,0.1994,0.2001,0.1942,0.191,0.1894,0.1896,0.1918,0.192,0.1921,0.1922,0,0.1107,0.1122,0.1187,0.1237,0.1307,0.1329,0.1387,0.1437,0.1501,0.1663,0.1672,0.1783,0.1891,0.1871,0.1884,0.187,0.1834,0.176,0.1778,0.1792,0.1714,0.1648,0.1567,0,0,0,0,0,0.1063,0.1068,0.1107,0.1149,0.1211,0.1252,0.1344,0.1401,0.1526,0.151,0.1587,0.1629,0.166,0.1719,0.1671,0.1809,0.1839,0.1743,0.1763,0.1852,0.1866,0.1787,0,0,0,0,0,0,0.1031,0.1065,0.1074,0.1064,0.1075,0.1128,0.1181,0.1266,0.1262,0.1397,0.1423,0.1526,0.1581,0.167,0.1639,0.1655,0.1631,0.1817,0.1812,0.1844,0.1857,0.1868,0.1792,0,0,0,0,0]},{"header":{"parameterUnit":"m.s-1","parameterCategory":2,"la1":30.2991,"la2":30.254,"lo1":-89.0895,"lo2":-89.0444,"dy":0.0017,"dx":0.0017,"nx":28,"ny":28,"refTime":"2025-08-30T03:00:00:Z","depth":"4","parameterNumber":3,"parameterNumberName":"V-component_of_CURRENTS"},"data":[0,0,0,0,0,0,0,0,0,0,0,0,0,0,0,0,0,0,0,0,0,0,0,0,0,0,0,0,0,0,0,0,0,0,0,0,0,0,0,0,0,0,0,0,0,0,0,0,0,0,0,0,0,0,0,0,0,0,0.0212,0.0212,0,0.0195,0.0195,0.0195,0.0186,0.0186,0.0186,0.0186,0.0158,0.0157,0.0156,0,0,0,0,0,0,0,0,0,0,0,0,0,0.0208,0.0208,0.0212,0.0212,0.0212,0.0196,0.0195,0.0195,0.0186,0.0186,0.0186,0.0186,0.0158,0.0157,0.0156,0,0,0,0,0,0,0,0,0,0,0,0,0,0.0202,0.0208,0.0212,0.0206,0.0205,0.0196,0.0195,0.0195,0.0186,0.0186,0.0186,0.0186,0.0158,0.0157,0.0156,0.0149,0,0,0.0153,0.0152,0,0,0,0,0,0,0,0,0.0202,0.0202,0.0207,0.0206,0.0205,0.0193,0.0183,0.0179,0.0186,0.0193,0.0186,0.0186,0.0169,0.0167,0.0164,0.0148,0.0147,0.0153,0.0152,0.0151,0.0151,0,0,0,0,0,0,0,0.0203,0.0203,0.0206,0.0207,0.0206,0.0193,0.0193,0.0182,0.0181,0.0193,0.0192,0.019,0.0168,0.0165,0.0163,0.0146,0.0153,0.0152,0.0151,0.015,0.0128,0.0128,0,0,0,0,0,0,0.0207,0.0203,0.0206,0.0205,0.0204,0.0194,0.0193,0.0197,0.0181,0.0179,0.019,0.019,0.0167,0.0164,0.0162,0.0167,0.0151,0.015,0.015,0.0128,0.0128,0.0128,0,0,0,0,0,0,0.0207,0.0207,0.0207,0.0203,0.0203,0.0194,0.0198,0.0197,0.0197,0.018,0.0177,0.0193,0.0167,0.0163,0.016,0.0165,0.015,0.0149,0.0128,0.0128,0.0128,0.0167,0,0,0,0,0,0,0.0207,0.0208,0.0213,0.0204,0.0203,0.0207,0.0198,0.0196,0.0196,0.0195,0.0181,0.0178,0.0166,0.0161,0.0158,0.0163,0.0148,0.0128,0.0128,0.0128,0.0166,0.0169,0.0171,0,0,0,0,0,0.0207,0.0216,0.0214,0.0214,0.0211,0.0208,0.0206,0.0199,0.0196,0.0199,0.0191,0.0179,0.016,0.0161,0.0157,0.0162,0.0128,0.0128,0.0128,0.0165,0.0168,0.0171,0,0,0,0,0,0,0.0215,0.0215,0.0213,0.0221,0.0217,0.0206,0.0209,0.0203,0.0199,0.0199,0.0183,0.0179,0.0177,0.0163,0.0164,0.0154,0.0141,0.014,0.0169,0.0173,0.0175,0.0184,0.0147,0,0,0,0,0,0.022,0.0228,0.0222,0.0229,0.0229,0.0219,0.0218,0.0213,0.0207,0.0205,0.0195,0.0183,0.0174,0.0169,0.0159,0.0155,0.0133,0.0154,0.0156,0.0159,0.0163,0.0134,0.0134,0.0129,0.0129,0.0129,0,0,0.0224,0.0225,0.023,0.0231,0.0227,0.0234,0.0219,0.022,0.0225,0.0202,0.0207,0.0193,0.0175,0.0173,0.017,0.0163,0.0148,0.0159,0.0161,0.0164,0.0134,0.0135,0.0135,0.0129,0.0129,0.0129,0,0,0.0237,0.0239,0.025,0.0251,0.0249,0.0245,0.0248,0.0241,0.0239,0.0239,0.0225,0.0215,0.0202,0.0191,0.0183,0.0192,0.0164,0.0187,0.0208,0.018,0.018,0.018,0.0151,0.0148,0.0188,0.0188,0.0188,0,0.0242,0.0258,0.0252,0.0262,0.0268,0.0254,0.0268,0.0262,0.0255,0.0256,0.0246,0.0226,0.021,0.0206,0.021,0.0199,0.0178,0.0199,0.0184,0.0183,0.0182,0.0152,0.0149,0.019,0.0189,0.0189,0.0189,0,0.0263,0.0277,0.0283,0.0296,0.03,0.0309,0.0304,0.0304,0.0298,0.0293,0.0287,0.0262,0.0251,0.0241,0.023,0.0219,0.0204,0.0192,0.0178,0.0185,0.0153,0.0148,0.0192,0.0192,0.0191,0.0191,0,0,0.0274,0.0295,0.0299,0.0315,0.0321,0.0328,0.0336,0.0342,0.0353,0.0332,0.0338,0.0315,0.03,0.0289,0.0267,0.0241,0.0216,0.0219,0.0216,0.0194,0.0152,0.0141,0.0135,0.0201,0.0201,0.0201,0.0131,0,0.0293,0.0326,0.033,0.0362,0.038,0.0375,0.0388,0.0389,0.0385,0.0385,0.035,0.0349,0.0319,0.0316,0.0284,0.0237,0.0207,0.0236,0.0145,0.0142,0.0134,0.013,0.0199,0.0127,0.0126,0.0126,0.0125,0,0.0314,0.0336,0.0373,0.0405,0.0413,0.0429,0.0451,0.0462,0.0454,0.045,0.0433,0.0406,0.0371,0.0341,0.0258,0.0278,0.0221,0.0176,0.0172,0.0146,0.0123,0.0117,0.0116,0.0117,0.0118,0.0118,0.0119,0,0.033,0.0366,0.04,0.0412,0.0443,0.0459,0.0476,0.0483,0.0505,0.0494,0.05,0.0449,0.0429,0.035,0.0259,0.0258,0.0158,0.0143,0.0075,0.0073,0.0088,0.0088,0.0078,0.0078,0.0079,0.0079,0.0079,0,0.035,0.0379,0.0414,0.0434,0.0481,0.0491,0.0539,0.0543,0.0559,0.0587,0.054,0.0538,0.0431,0.0361,0.027,0.016,0.0163,0.0078,0.0055,0.0105,0.0108,0.0084,0.0085,0.0076,0.0077,0.0077,0.0078,0,0.0363,0.0384,0.043,0.0473,0.0492,0.0528,0.0589,0.0622,0.0629,0.0658,0.0657,0.0604,0.0514,0.0397,0.0265,0.0183,0.0074,0.0032,0.0094,0.0076,0.0004,0.0008,-0.0051,-0.0052,-0.0053,-0.0053,-0.0054,0,0.0372,0.0397,0.0462,0.0497,0.0522,0.058,0.0624,0.0656,0.0692,0.0698,0.0709,0.0636,0.0583,0.0392,0.0263,0.008,0.0053,-0.001,-0.0006,0.0007,-0.001,-0.0004,0.0001,-0.0055,-0.0055,-0.0056,-0.0056,0,0.0392,0.0416,0.0455,0.053,0.0585,0.0653,0.0712,0.0741,0.0772,0.0777,0.0752,0.0653,0.0548,0.0396,0.0253,0.0122,0.0028,-0.0019,-0.0018,-0.0015,0.0001,-0.0013,-0.0007,-0.0059,-0.0058,-0.0058,-0.0058,0,0.0407,0.0438,0.0492,0.0559,0.0631,0.0697,0.0732,0.0769,0.0802,0.0798,0.0788,0.0674,0.0611,0.0417,0.0287,0.0155,0.0118,0.0069,0.0064,0.0066,0.0117,0.0155,0.0124,0,0,0,0,0,0.0419,0.0456,0.0517,0.059,0.0664,0.071,0.0778,0.0805,0.0829,0.0817,0.0804,0.0705,0.0514,0.0437,0.0303,0.0261,0.0089,0.0098,0.0028,-0.0074,-0.0071,-0.0031,0,0,0,0,0,0,0.0427,0.0483,0.0515,0.0606,0.0661,0.0746,0.0793,0.0812,0.0806,0.0805,0.0711,0.0663,0.0483,0.0592,0.0299,0.026,0.0194,0.0012,0.0009,-0.0076,-0.0073,-0.0071,-0.0029,0,0,0,0,0]}]]